| time (UTC) | temp F | wind direction | speed MPH | gust MPH | rain 1hr in | rain 24hr in | rain mn in | humidity % | barometer mb |
| 20260507140917 | 44 | 309 | 7.0 | 12.0 | 0.00 | 0.00 | 0.00 | 75 | 1013.1 |
| 20260507135415 | 43 | 298 | 7.0 | 13.0 | 0.00 | 0.00 | 0.00 | 74 | 1013.4 |
| 20260507133915 | 43 | 319 | 4.0 | 10.0 | 0.00 | 0.00 | 0.00 | 74 | 1013.3 |
| 20260507132416 | 42 | 321 | 3.0 | 12.0 | 0.00 | 0.00 | 0.00 | 73 | 1013.3 |
| 20260507130915 | 42 | 300 | 7.0 | 15.0 | 0.00 | 0.00 | 0.00 | 73 | 1013.5 |
| 20260507125411 | 42 | 295 | 6.0 | 12.0 | 0.00 | 0.00 | 0.00 | 80 | 1013.6 |
| 20260507123843 | 41 | 302 | 5.0 | 4.0 | 0.00 | 0.00 | 0.00 | 80 | 1013.5 |
| 20260507122200 | 40 | 311 | 4.0 | 9.0 | 0.00 | 0.00 | 0.00 | 81 | 1013.4 |
| 20260507122106 | 40 | 311 | 5.0 | 10.0 | 0.00 | 0.00 | 0.00 | 82 | 1013.3 |
| 20260507115905 | 39 | 269 | 3.0 | 7.0 | 0.00 | 0.00 | 0.00 | 87 | 1013.3 |
| 20260507114404 | 39 | 317 | 3.0 | 7.0 | 0.00 | 0.00 | 0.00 | 91 | 1013.4 |
| 20260507112200 | 38 | 285 | 0.0 | 4.0 | 0.00 | 0.00 | 0.00 | 94 | 1013.1 |
| 20260507112053 | 38 | 114 | 0.0 | 4.0 | 0.00 | 0.00 | 0.00 | 95 | 1012.9 |
| 20260507105159 | 36 | 123 | 1.0 | 3.0 | 0.00 | 0.00 | 0.00 | 96 | 1012.8 |
| 20260507103701 | 34 | 283 | 1.0 | 2.0 | 0.00 | 0.00 | 0.00 | 95 | 1013.1 |
| 20260507102201 | 33 | 355 | 1.0 | 2.0 | 0.00 | 0.00 | 0.00 | 94 | 1012.8 |
| 20260507100702 | 33 | 355 | 0.0 | 1.0 | 0.00 | 0.00 | 0.00 | 94 | 1012.6 |
| 20260507100554 | 33 | 355 | 1.0 | 4.0 | 0.00 | 0.00 | 0.00 | 93 | 1012.6 |
| 20260507093702 | 34 | 293 | 1.0 | 3.0 | 0.00 | 0.00 | 0.00 | 92 | 1012.5 |
| 20260507092144 | 35 | 293 | 1.0 | 2.0 | 0.00 | 0.00 | 0.00 | 91 | 1012.6 |
| 20260507091345 | 36 | 293 | 1.0 | 3.0 | 0.00 | 0.00 | 0.00 | 90 | 1012.9 |
| 20260507085140 | 36 | 317 | 0.0 | 3.0 | 0.00 | 0.00 | 0.00 | 90 | 1013.0 |
| 20260507083642 | 37 | 315 | 1.0 | 4.0 | 0.00 | 0.00 | 0.00 | 90 | 1012.9 |
| 20260507082142 | 37 | 323 | 1.0 | 4.0 | 0.00 | 0.00 | 0.00 | 90 | 1013.1 |
| 20260507080640 | 37 | 348 | 1.0 | 2.0 | 0.00 | 0.00 | 0.00 | 89 | 1012.8 |
| 20260507075140 | 38 | 344 | 1.0 | 2.0 | 0.00 | 0.00 | 0.00 | 87 | 1012.7 |
| 20260507073641 | 38 | 268 | 1.0 | 3.0 | 0.00 | 0.00 | 0.00 | 87 | 1012.7 |
| 20260507072140 | 38 | 285 | 2.0 | 5.0 | 0.00 | 0.00 | 0.00 | 86 | 1012.6 |
| 20260507071354 | 39 | 320 | 3.0 | 7.0 | 0.00 | 0.00 | 0.00 | 87 | 1012.6 |
| 20260507065140 | 39 | 266 | 3.0 | 8.0 | 0.00 | 0.00 | 0.00 | 88 | 1012.7 |
| 20260507063641 | 39 | 274 | 3.0 | 8.0 | 0.00 | 0.00 | 0.00 | 89 | 1012.8 |
| 20260507062140 | 39 | 315 | 5.0 | 12.0 | 0.00 | 0.00 | 0.00 | 89 | 1012.8 |
| 20260507060638 | 39 | 304 | 5.0 | 11.0 | 0.00 | 0.00 | 0.00 | 91 | 1013.0 |
| 20260507055138 | 40 | 318 | 6.0 | 12.0 | 0.00 | 0.00 | 0.00 | 93 | 1012.8 |
| 20260507054342 | 40 | 290 | 6.0 | 10.0 | 0.00 | 0.00 | 0.00 | 93 | 1012.8 |
| 20260507052139 | 40 | 311 | 7.0 | 14.0 | 0.00 | 0.00 | 0.00 | 94 | 1013.0 |
| 20260507050635 | 40 | 311 | 5.0 | 11.0 | 0.00 | 0.00 | 0.00 | 95 | 1013.0 |
| 20260507045829 | 41 | 309 | 4.0 | 8.0 | 0.00 | 0.00 | 0.00 | 95 | 1012.9 |
| 20260507043636 | 41 | 281 | 6.0 | 12.0 | 0.00 | 0.00 | 0.00 | 95 | 1012.9 |
| 20260507042134 | 42 | 325 | 8.0 | 14.0 | 0.00 | 0.00 | 0.00 | 96 | 1012.5 |
| 20260507040633 | 42 | 323 | 5.0 | 4.0 | 0.00 | 0.00 | 0.00 | 96 | 1012.3 |
| 20260507034941 | 42 | 329 | 5.0 | 10.0 | 0.01 | 0.01 | 0.72 | 96 | 1012.1 |
| 20260507033456 | 43 | 270 | 3.0 | 9.0 | 0.01 | 0.01 | 0.72 | 96 | 1012.2 |
| 20260507031942 | 43 | 290 | 2.0 | 5.0 | 0.01 | 0.01 | 0.72 | 96 | 1012.3 |
| 20260507030444 | 43 | 213 | 2.0 | 6.0 | 0.00 | 0.00 | 0.71 | 96 | 1012.4 |
| 20260507024925 | 43 | 267 | 2.0 | 6.0 | 0.00 | 0.00 | 0.71 | 96 | 1012.3 |
| 20260507023427 | 42 | 273 | 3.0 | 7.0 | 0.00 | 0.00 | 0.71 | 96 | 1012.3 |
| 20260507021918 | 42 | 273 | 2.0 | 3.0 | 0.00 | 0.00 | 0.71 | 96 | 1012.3 |
| 20260507020421 | 42 | 244 | 0.0 | 1.0 | 0.00 | 0.00 | 0.71 | 96 | 1012.3 |
| 20260507014918 | 42 | 242 | 0.0 | 0.0 | 0.00 | 0.00 | 0.71 | 96 | 1012.5 |
| 20260507013418 | 42 | 242 | 0.0 | 2.0 | 0.00 | 0.00 | 0.71 | 96 | 1012.5 |
| 20260507011920 | 42 | 242 | 0.0 | 2.0 | 0.00 | 0.00 | 0.71 | 96 | 1012.3 |
| 20260507010418 | 42 | 242 | 1.0 | 3.0 | 0.00 | 0.00 | 0.71 | 96 | 1012.4 |
| 20260507004919 | 42 | 258 | 1.0 | 3.0 | 0.00 | 0.00 | 0.71 | 96 | 1012.3 |
| 20260507003420 | 42 | 267 | 1.0 | 4.0 | 0.00 | 0.00 | 0.71 | 96 | 1012.2 |
| 20260507002617 | 42 | 276 | 3.0 | 7.0 | 0.00 | 0.00 | 0.71 | 96 | 1011.8 |
| 20260507000420 | 42 | 266 | 2.0 | 7.0 | 0.00 | 0.00 | 0.71 | 96 | 1011.6 |
| 20260506234915 | 42 | 273 | 2.0 | 6.0 | 0.00 | 0.00 | 0.71 | 96 | 1011.6 |
| 20260506233418 | 42 | 277 | 2.0 | 4.0 | 0.00 | 0.00 | 0.71 | 96 | 1011.4 |
| 20260506231916 | 43 | 277 | 2.0 | 4.0 | 0.00 | 0.00 | 0.71 | 96 | 1011.1 |
| 20260506230418 | 42 | 262 | 1.0 | 3.0 | 0.00 | 0.00 | 0.71 | 96 | 1010.6 |
| 20260506224916 | 43 | 248 | 1.0 | 4.0 | 0.00 | 0.00 | 0.71 | 96 | 1010.9 |
| 20260506223417 | 43 | 320 | 3.0 | 8.0 | 0.00 | 0.00 | 0.71 | 96 | 1011.0 |
| 20260506221916 | 43 | 332 | 4.0 | 9.0 | 0.00 | 0.00 | 0.71 | 96 | 1011.0 |
| 20260506221117 | 42 | 296 | 4.0 | 8.0 | 0.00 | 0.00 | 0.71 | 97 | 1011.1 |
| 20260506214846 | 42 | 344 | 6.0 | 9.0 | 0.00 | 0.00 | 0.71 | 97 | 1011.0 |
| 20260506213347 | 43 | 324 | 5.0 | 10.0 | 0.00 | 0.00 | 0.71 | 98 | 1010.7 |
| 20260506212427 | 42 | 316 | 8.0 | 13.0 | 0.00 | 0.00 | 0.71 | 97 | 1010.5 |
| 20260506211848 | 42 | 306 | 7.0 | 13.0 | 0.00 | 0.00 | 0.71 | 97 | 1010.7 |
| 20260506205545 | 42 | 327 | 6.0 | 13.0 | 0.00 | 0.00 | 0.71 | 97 | 1010.4 |
| 20260506204041 | 42 | 319 | 6.0 | 13.0 | 0.00 | 0.00 | 0.71 | 97 | 1010.4 |
| 20260506201847 | 42 | 332 | 7.0 | 14.0 | 0.00 | 0.00 | 0.71 | 98 | 1010.1 |
| 20260506200348 | 42 | 317 | 9.0 | 15.0 | 0.00 | 0.00 | 0.71 | 97 | 1010.1 |
| 20260506194845 | 43 | 348 | 9.0 | 14.0 | 0.00 | 0.00 | 0.71 | 97 | 1010.1 |
| 20260506194033 | 43 | 324 | 7.0 | 8.0 | 0.00 | 0.00 | 0.71 | 97 | 1009.9 |
| 20260506191737 | 43 | 294 | 8.0 | 11.0 | 0.03 | 0.51 | 0.71 | 97 | 1009.8 |
| 20260506190238 | 43 | 319 | 8.0 | 14.0 | 0.02 | 0.50 | 0.70 | 97 | 1009.8 |
| 20260506184737 | 44 | 313 | 9.0 | 12.0 | 0.01 | 0.49 | 0.69 | 97 | 1009.8 |
| 20260506183238 | 44 | 326 | 8.0 | 12.0 | 0.01 | 0.49 | 0.69 | 97 | 1009.5 |
| 20260506181740 | 44 | 319 | 6.0 | 10.0 | 0.01 | 0.48 | 0.68 | 97 | 1009.1 |
| 20260506180240 | 44 | 317 | 5.0 | 9.0 | 0.01 | 0.48 | 0.68 | 97 | 1009.1 |
| 20260506174737 | 44 | 319 | 4.0 | 8.0 | 0.01 | 0.48 | 0.68 | 97 | 1008.7 |
| 20260506173238 | 44 | 329 | 4.0 | 8.0 | 0.02 | 0.48 | 0.68 | 97 | 1008.8 |
| 20260506171739 | 44 | 329 | 4.0 | 8.0 | 0.02 | 0.47 | 0.67 | 97 | 1008.7 |
| 20260506170240 | 44 | 10 | 3.0 | 8.0 | 0.02 | 0.47 | 0.67 | 97 | 1008.6 |
| 20260506164736 | 44 | 339 | 3.0 | 5.0 | 0.03 | 0.47 | 0.67 | 97 | 1008.5 |
| 20260506163241 | 44 | 328 | 3.0 | 6.0 | 0.02 | 0.46 | 0.66 | 97 | 1008.7 |
| 20260506161738 | 43 | 347 | 3.0 | 4.0 | 0.01 | 0.45 | 0.65 | 97 | 1008.7 |
| 20260506160241 | 43 | 5 | 2.0 | 5.0 | 0.01 | 0.45 | 0.65 | 97 | 1008.8 |
| 20260506154728 | 43 | 50 | 2.0 | 4.0 | 0.01 | 0.44 | 0.64 | 97 | 1008.9 |
| 20260506153231 | 43 | 9 | 2.0 | 5.0 | 0.03 | 0.44 | 0.64 | 97 | 1008.7 |
| 20260506151706 | 43 | 355 | 3.0 | 6.0 | 0.04 | 0.44 | 0.64 | 97 | 1008.7 |
| 20260506150909 | 43 | 53 | 4.0 | 7.0 | 0.06 | 0.44 | 0.64 | 97 | 1008.3 |
| 20260506144708 | 43 | 76 | 2.0 | 7.0 | 0.07 | 0.43 | 0.63 | 97 | 1008.3 |
| 20260506143209 | 43 | 38 | 3.0 | 5.0 | 0.08 | 0.41 | 0.62 | 97 | 1008.3 |
| 20260506142359 | 43 | 5 | 2.0 | 5.0 | 0.10 | 0.40 | 0.60 | 97 | 1008.4 |